DL8MYG Weather Reports


time (UTC)temp
C
wind
direction
speed
KPH
gust
KPH
rain 1hr
cm
rain 24hr
cm
rain mn
cm
humidity
%
barometer
mb
20191022154905 13 0.0 0.0 0.00 0.00 0.00 74 1019.8
20191022153905 14 0.0 0.0 0.00 0.00 0.00 72 1019.8
20191022145904 20 0.0 0.0 0.00 0.00 0.00 53 1019.3
20191022144904 18 0.0 0.0 0.00 0.00 0.00 56 1019.3
20191022143905 18 0.0 0.0 0.00 0.00 0.00 60 1019.4
20191022141905 16 0.0 0.0 0.00 0.00 0.00 65 1019.3
20191022140906 16 0.0 0.0 0.00 0.00 0.00 63 1019.4
20191022135905 18 0.0 0.0 0.00 0.00 0.00 57 1019.6
20191022133904 18 0.0 0.0 0.00 0.00 0.00 57 1019.7
20191022132906 18 0.0 0.0 0.00 0.00 0.00 54 1019.8
20191022130904 18 0.0 0.0 0.00 0.00 0.00 56 1019.9
20191022124905 17 0.0 0.0 0.00 0.00 0.00 57 1020.2
20191022120904 17 0.0 0.0 0.00 0.00 0.00 58 1020.1
20191022115903 18 0.0 0.0 0.00 0.00 0.00 57 1020.2
20191022114904 17 0.0 0.0 0.00 0.00 0.00 58 1020.3
20191022111907 16 0.0 0.0 0.00 0.00 0.00 61 1020.0
20191022110906 18 0.0 0.0 0.00 0.00 0.00 56 1020.3
20191022105904 17 0.0 0.0 0.00 0.00 0.00 57 1020.3
20191022104905 16 0.0 0.0 0.00 0.00 0.00 60 1020.3
20191022100903 16 0.0 0.0 0.00 0.00 0.00 65 1020.9
20191022095904 16 0.0 0.0 0.00 0.00 0.00 66 1020.9
20191022092904 16 0.0 0.0 0.00 0.00 0.00 67 1020.5
20191022091905 16 0.0 0.0 0.00 0.00 0.00 68 1020.3
20191022085906 18 0.0 0.0 0.00 0.00 0.00 66 1020.1
20191022084905 16 0.0 0.0 0.00 0.00 0.00 75 1020.1
20191022081905 19 0.0 0.0 0.00 0.00 0.00 64 1020.0
20191022080904 18 0.0 0.0 0.00 0.00 0.00 69 1019.6
20191022074904 13 0.0 0.0 0.00 0.00 0.00 89 1019.5
20191022071904 12 0.0 0.0 0.00 0.00 0.00 91 1019.6
20191022064903 11 0.0 0.0 0.00 0.00 0.00 96 1019.3
20191022063903 11 0.0 0.0 0.00 0.00 0.00 97 1019.2
20191022062904 11 0.0 0.0 0.00 0.00 0.00 98 1019.0
20191022060905 11 0.0 0.0 0.00 0.00 0.00 99 1019.0
20191022054906 10 0.0 0.0 0.00 0.00 0.00 10 1018.9
20191022050905 10 0.0 0.0 0.00 0.00 0.00 99 1018.8
20191022045908 10 0.0 0.0 0.00 0.00 0.00 97 1018.6
20191022044905 11 0.0 0.0 0.00 0.00 0.00 97 1018.6
20191022043904 11 0.0 0.0 0.00 0.00 0.00 98 1018.6
20191022042904 11 0.0 0.0 0.00 0.00 0.00 98 1018.4
20191022041904 11 0.0 0.0 0.00 0.00 0.00 98 1018.3
20191022040905 11 0.0 0.0 0.00 0.00 0.00 99 1018.3
20191022031904 12 0.0 0.0 0.00 0.00 0.00 91 1018.0
20191022030905 12 0.0 0.0 0.00 0.00 0.00 92 1017.9
20191022023904 12 0.0 0.0 0.00 0.00 0.00 89 1017.9
20191022020904 13 0.0 0.0 0.00 0.00 0.00 86 1017.9
20191022015903 13 0.0 0.0 0.00 0.00 0.00 86 1018.3
20191022014904 13 0.0 0.0 0.00 0.00 0.00 89 1018.3
20191022012904 13 0.0 0.0 0.00 0.00 0.00 90 1018.2
20191022010904 13 0.0 0.0 0.00 0.00 0.00 91 1018.0
20191022005905 13 0.0 0.0 0.00 0.00 0.00 94 1018.2
20191022003904 12 0.0 0.0 0.00 0.00 0.00 97 1018.1
20191022002905 12 0.0 0.0 0.00 0.00 0.00 10 1018.1
20191022001906 12 0.0 0.0 0.00 0.00 0.00 10 1018.0
20191022000904 12 0.0 0.0 0.00 0.00 0.00 10 1017.8
20191021235905 12 0.0 0.0 0.00 0.00 0.00 10 1018.0
20191021231904 12 0.0 0.0 0.00 0.00 0.00 10 1017.7
20191021230904 12 0.0 0.0 0.00 0.00 0.00 10 1017.5
20191021225904 12 0.0 0.0 0.00 0.00 0.00 10 1017.4
20191021224904 12 0.0 0.0 0.00 0.00 0.00 10 1017.5
20191021223905 12 0.0 0.0 0.00 0.00 0.00 10 1017.4
20191021222904 12 0.0 0.0 0.00 0.00 0.00 10 1017.5
20191021221905 12 0.0 0.0 0.00 0.00 0.00 10 1017.5
20191021220905 12 0.0 0.0 0.00 0.00 0.00 10 1017.2
20191021215905 12 0.0 0.0 0.00 0.00 0.00 10 1017.1
20191021214907 12 0.0 0.0 0.00 0.00 0.00 10 1017.2
20191021212905 12 0.0 0.0 0.00 0.00 0.00 10 1017.0
20191021210904 13 0.0 0.0 0.00 0.00 0.00 10 1016.9
20191021204905 13 0.0 0.0 0.00 0.00 0.00 10 1016.6
20191021203905 13 0.0 0.0 0.00 0.00 0.00 10 1016.7
20191021201904 14 0.0 0.0 0.00 0.00 0.00 98 1016.5
20191021200904 14 0.0 0.0 0.00 0.00 0.00 97 1016.5
20191021195904 15 0.0 0.0 0.00 0.00 0.00 96 1016.4
20191021191905 15 0.0 0.0 0.00 0.00 0.00 96 1016.1
20191021190905 15 0.0 0.0 0.00 0.00 0.00 97 1016.3
20191021185905 15 0.0 0.0 0.00 0.00 0.00 96 1016.1
20191021183904 15 0.0 0.0 0.00 0.00 0.00 94 1016.0
20191021182904 15 0.0 0.0 0.00 0.00 0.00 94 1015.8
20191021181904 15 0.0 0.0 0.00 0.00 0.00 94 1015.9
20191021180904 16 0.0 0.0 0.00 0.00 0.00 93 1015.9
20191021171904 16 0.0 0.0 0.00 0.00 0.00 89 1015.3
20191021170905 16 0.0 0.0 0.00 0.00 0.00 87 1015.4
20191021165904 17 0.0 0.0 0.00 0.00 0.00 86 1015.2
20191021164904 17 0.0 0.0 0.00 0.00 0.00 84 1015.1